Location: Unspecified
(33.1998°N, 0.0000°E)
Time: 13:57:20
(UTC+00:00)

SL-16 DEB - Visible Passes

Search period start: 04 April 2026 00:00
Search period end: 14 April 2026 00:00
Orbit: 796 x 808 km, 71.0° (Epoch: 28 March)

Date Brightness Start Highest point End Pass type
(mag) Time Alt. Az. Time Alt. Az. Time Alt. Az.
4 Apr ? 19:15:11 10° NW 19:19:34 26° WSW 19:23:56 10° SSW visible
5 Apr ? 18:47:39 10° NW 18:52:32 36° WSW 18:57:25 10° S visible
12 Apr ? 05:04:24 10° ESE 05:06:29 12° E 05:08:35 10° ENE visible
